Satellite: RS-38 Catalog number: 35869 Epoch time: 11230.21113401 Element set: 633 Inclination: 098.6970 deg RA of node: 284.5512 deg Eccentricity: 0.0004319 Arg of perigee: 202.5903 deg Mean anomaly: 157.5074 deg Mean motion: 14.22018850 rev/day Decay rate: 1.77e-06 rev/day^2 Epoch rev: 9941 Checksum: 286
Satellite: ARISSAT1 Catalog number: 37772 Epoch time: 11230.78515973 Element set: 45 Inclination: 051.6391 deg RA of node: 205.6265 deg Eccentricity: 0.0013359 Arg of perigee: 095.0809 deg Mean anomaly: 332.3458 deg Mean motion: 15.61165345 rev/day Decay rate: 2.4582e-04 rev/day^2 Epoch rev: 226 Checksum: 294
/EX
participants (1)
-
Ray Hoad